{"data":{"norad_id":66117,"epoch":"2026-05-25T03:16:21.974880Z","epoch_age_seconds":64020,"freshness":"FRESH","line1":"1 66117U 25237D   26145.13636545  .00019174  00000+0  65778-3 0  9998","line2":"2 66117  53.1583  44.6229 0001177  79.3083 280.8050 15.30201610 34314","mean_motion":15.3020161,"eccentricity":0.0001177,"inclination_deg":53.1583,"raan_deg":44.6229,"arg_perigee_deg":79.3083,"mean_anomaly_deg":280.805,"bstar":0.00065778,"rev_number":3431,"period_min":94.105246693604,"perigee_km":474.40362328098,"apogee_km":476.01690122651,"semimajor_km":6853.3472622537,"source":"CELESTRAK","updated_at":"2026-05-25T13:38:21.061803Z"}}